Location: Unspecified
(43.3830°N, 0.0000°E)
Time: 15:26:13
(UTC+00:00)

Explorer 7 - Pass Details

Date: 04 July 2019
Orbit: 485 x 680 km, 50.3° (Epoch: 17 July)

Event Time Altitude Azimuth Distance (km) Brightness Sun altitude
Rises 02:59:01 0° 196° (SSW) 2,556 - -12.5°
Reaches altitude 10° 03:01:41 10° 176° (S) 1,700 - -12.2°
Exits shadow 03:01:41 10° 176° (S) 1,697 8.9 -12.2°
Maximum altitude 03:04:18 18° 133° (SE) 1,318 8.7 -11.9°
Drops below altitude 10° 03:07:00 10° 90° (E) 1,765 10.0 -11.6°
Sets 03:09:50 0° 71° (ENE) 2,699 11.6 -11.2°
